Miscellaneous Local Product
Issued by NWS Hastings, NE

Home | Current Version | Previous Version | Graphics & Text | Print | Product List | Glossary On
Versions: 1 2 3 4 5 6 7 8 9 10 11 12 13 14 15 16 17 18 19 20 21 22 23 24 25 26 27 28 29 30 31 32 33 34 35 36 37 38 39 40 41 42 43 44 45 46 47 48 49 50
000
AXUS43 KGID 251402
MISGRI

GID CWA HOURLY WEATHER ROUNDUP
NATIONAL WEATHER SERVICE HASTINGS NE
800 AM CST THU DEC 25 2014

NOTE: "FAIR" INDICATES FEW OR NO CLOUDS BELOW 12,000 FEET WITH NO
SIGNIFICANT WEATHER AND/OR OBSTRUCTIONS TO VISIBILITY.

...SOUTH CENTRAL NEBRASKA...

CITY           SKY/WX    TMP DP  RH WIND       PRES   REMARKS
GRAND ISLAND   PTCLDY    29  22  75 SE7       29.54S WCI  22
HASTINGS       PTCLDY    28  21  75 SE8       29.52S WCI  20
KEARNEY        PTCLDY    25  19  80 E5        29.52R WCI  19
ORD            CLEAR     22  20  92 CALM      29.51R
YORK           MOCLDY    32  25  74 S8        29.57R WCI  25
AURORA         MOCLDY    30  25  80 S6        29.55S WCI  24
LEXINGTON      PTCLDY    27  22  82 E7        29.47S WCI  20
HOLDREGE       PTCLDY    24  20  84 SE8       29.48F WCI  15
HEBRON         MOCLDY    32  23  69 SE9       29.58R WCI  24

...NEBRASKA PANHANDLE...

CITY           SKY/WX    TMP DP  RH WIND       PRES   REMARKS
CHADRON        CLOUDY    30  27  88 NE8       29.56R WCI  22
ALLIANCE       CLOUDY    29  25  85 N16       29.48R WCI  17
SCOTTSBLUFF    CLOUDY    33  27  78 NE21      29.44R WCI  21
SIDNEY         CLOUDY    32  24  72 NE10      29.42S WCI  24

...WESTERN AND NORTH CENTRAL NEBRASKA...

CITY           SKY/WX    TMP DP  RH WIND       PRES   REMARKS
VALENTINE      CLOUDY    30  23  75 NE16      29.51S WCI  19
AINSWORTH      MOCLDY    28  26  90 N3        29.50R
ONEILL         PTCLDY    27  26  96 CALM      29.53R
BROKEN BOW     CLEAR     23  19  85 NE3       29.48S
IMPERIAL       MOCLDY    24  19  81 N5        29.43R WCI  18
NORTH PLATTE   MOCLDY    26  21  81 E5        29.44F WCI  20
MCCOOK         PTCLDY    22  18  85 NE5       29.45R WCI  16

...EASTERN NEBRASKA...

CITY           SKY/WX    TMP DP  RH WIND       PRES   REMARKS
NORFOLK        PTCLDY    28  23  81 SE5       29.57R WCI  23
SO SIOUX CITY  MOCLDY    30  26  85 E7        29.62R WCI  23
TEKAMAH        CLOUDY    32  28  85 SE7       29.63R WCI  26
COLUMBUS       MOCLDY    30  21  69 S7        29.60R WCI  23
ALBION         PTCLDY    27  21  80 SE5       29.56R WCI  21
OMAHA EPPLEY   CLOUDY    32  27  81 S13       29.66R WCI  22
OFFUTT AFB     MOCLDY    31  27  83 S7        29.64R WCI  25
MILLARD        MOCLDY    32  27  80 SE3       29.64R
LINCOLN        MOCLDY    31  24  75 S7        29.63R WCI  24
NEBRASKA CITY  PTCLDY    32  25  76 S15       29.66S WCI  22
BEATRICE       MOCLDY    32  25  75 S14       29.61S WCI  22
FALLS CITY     MOCLDY    34  26  72 S15G22    29.69S WCI  24

...NORTHERN KANSAS...

CITY           SKY/WX    TMP DP  RH WIND       PRES   REMARKS
GOODLAND       CLOUDY    29  23  78 W9        29.40S WCI  20
HILL CITY      FAIR      28  18  66 SE3       29.48S
NORTON         SUNNY     28  18  64 SE5       29.45S WCI  23
PHILLIPSBURG   CLEAR     27  23  86 E8        29.51S WCI  18
SMITH CENTER   CLEAR     25  21  86 E10       29.54R WCI  15
BELOIT         CLEAR     32  25  74 SE7       29.57R WCI  26
HAYS           PTCLDY    30  16  55 S14       29.50S WCI  20
RUSSELL        MOCLDY    32  23  69 MISG      29.50F
CONCORDIA      PTCLDY    34  24  67 S18       29.58R WCI  23
SALINA         PTCLDY    36  25  64 S21G28    29.60F WCI  25
TOPEKA         PTCLDY    36  26  67 S13       29.75R WCI  27



USA.gov is the U.S. government's official web portal to all federal, state and local government web resources and services.